Weather History for KLXT - June, 2013

Change the Weather History Date:

Sunday, June 16, 2013

  Actual Average (KMKC) Record (KMKC)
Temperature  
Mean Temperature 73 °F -  
Max Temperature 82 °F 81 °F 93 °F (2006)
Min Temperature 66 °F 63 °F 54 °F (1999)
Cooling Degree Days 8    
Growing Degree Days 23 (Base 50)    
Moisture  
Dew Point 68 °F    
Average Humidity 84    
Maximum Humidity 94    
Minimum Humidity 71    
Precipitation  
Precipitation 0.00 in - - ()
Sea Level Pressure  
Sea Level Pressure 29.95 in    
Wind  
Wind Speed 3 mph (ESE)    
Max Wind Speed 9 mph    
Max Gust Speed -    
Visibility 9 miles    
Events      
Averages and records for this station are not official NWS values.
T = Trace of Precipitation, MM = Missing Value Source: NWS Daily Summary

Daily Weather History Graph

Daily Weather History Graph

Search for Another Location

Airport or City:

Trip Planner

Search our weather history database for the weather conditions in past years. The results will help you decide how hot, cold, wet, or windy it might be!

Date:

Astronomy

Jun. 16, 2013 Rise Set
Actual Time 5:51 AM CDT 8:45 PM CDT
Civil Twilight 5:19 AM CDT 9:17 PM CDT
Nautical Twilight 4:38 AM CDT 9:57 PM CDT
Astronomical Twilight 3:52 AM CDT 10:44 PM CDT
Moon 1:24 PM CDT (6/16) 12:53 AM CDT (6/16)
Length of Visible Light 15h 57m
Length of Day
14h 53m
Waxing Crescent, 50% of the Moon is Illuminated
Jun 16
Waxing Crescent
Jun 16
First Quarter
Jun 23
Full
Jun 29
Last Quarter
Jul 8
New

Hourly Weather History & Observations

Time (CDT) Temp. Heat Index Dew Point Humidity Pressure Visibility Wind Dir Wind Speed Gust Speed Precip Events Conditions
12:53 AM 66.9 °F - 64.0 °F 90% 29.94 in 10.0 mi Calm Calm - N/A   Mostly Cloudy
1:53 AM 68.0 °F - 64.0 °F 87% 29.93 in 10.0 mi Calm Calm - N/A   Scattered Clouds
2:53 AM 66.9 °F - 64.9 °F 93% 29.94 in 10.0 mi SSW 3.5 mph - N/A   Mostly Cloudy
3:53 AM 68.0 °F - 64.9 °F 90% 29.95 in 10.0 mi SW 4.6 mph - N/A   Overcast
4:25 AM 68.0 °F - 66.2 °F 94% 29.97 in 10.0 mi South 3.5 mph - N/A   Overcast
4:53 AM 68.0 °F - 64.9 °F 90% 29.94 in 10.0 mi South 4.6 mph - N/A   Mostly Cloudy
5:04 AM 68.0 °F - 64.4 °F 88% 29.96 in 10.0 mi Calm Calm - N/A   Mostly Cloudy
5:53 AM 66.9 °F - 64.9 °F 93% 29.95 in 10.0 mi Calm Calm - N/A   Partly Cloudy
6:09 AM 66.2 °F - 64.4 °F 94% 29.96 in 7.0 mi Calm Calm - N/A   Mostly Cloudy
6:53 AM 68.0 °F - 66.0 °F 93% 29.95 in 10.0 mi SE 4.6 mph - N/A   Overcast
7:32 AM 69.8 °F - 66.2 °F 88% 29.96 in 10.0 mi South 3.5 mph - N/A   Overcast
7:53 AM 70.0 °F - 66.9 °F 90% 29.95 in 10.0 mi South 3.5 mph - N/A   Overcast
8:05 AM 69.8 °F - 66.2 °F 88% 29.97 in 10.0 mi Calm Calm - N/A   Overcast
8:36 AM 71.6 °F - 66.2 °F 83% 29.98 in 10.0 mi South 4.6 mph - N/A   Overcast
8:50 AM 71.6 °F - 68.0 °F 88% 29.97 in 10.0 mi South 5.8 mph - N/A   Overcast
8:53 AM 71.1 °F - 68.0 °F 90% 29.96 in 10.0 mi SSW 5.8 mph - N/A   Overcast
9:21 AM 73.4 °F - 69.8 °F 88% 29.98 in 10.0 mi South 4.6 mph - N/A   Overcast
9:50 AM 73.4 °F - 69.8 °F 88% 29.96 in 10.0 mi SSE 3.5 mph - N/A   Overcast
9:53 AM 73.9 °F - 69.1 °F 85% 29.94 in 10.0 mi South 4.6 mph - N/A   Overcast
10:53 AM 75.0 °F - 70.0 °F 84% 29.95 in 10.0 mi West 4.6 mph - N/A   Overcast
11:53 AM 75.9 °F - 70.0 °F 82% 29.96 in 9.0 mi Calm Calm - N/A   Overcast
12:09 PM 75.2 °F - 69.8 °F 83% 29.98 in 9.0 mi Variable 3.5 mph - N/A   Overcast
12:53 PM 75.0 °F - 69.1 °F 82% 29.97 in 7.0 mi North 6.9 mph - N/A   Overcast
1:29 PM 75.2 °F - 69.8 °F 83% 29.99 in 6.0 mi NNE 8.1 mph - N/A   Haze
1:53 PM 77.0 °F - 70.0 °F 79% 29.96 in 6.0 mi NE 9.2 mph - N/A   Haze
2:53 PM 79.0 °F - 70.0 °F 74% 29.95 in 7.0 mi Calm Calm - N/A   Overcast
3:12 PM 80.6 °F 84.6 °F 71.6 °F 74% 29.97 in 8.0 mi NNE 4.6 mph - N/A   Scattered Clouds
3:37 PM 80.6 °F 84.6 °F 71.6 °F 74% 29.97 in 8.0 mi Calm Calm - N/A   Mostly Cloudy
3:53 PM 80.1 °F 83.6 °F 71.1 °F 74% 29.94 in 9.0 mi East 5.8 mph - N/A   Overcast
4:53 PM 80.1 °F 83.2 °F 70.0 °F 71% 29.94 in 10.0 mi ENE 5.8 mph - N/A   Overcast
5:31 PM 80.6 °F 84.6 °F 71.6 °F 74% 29.95 in 10.0 mi NE 5.8 mph - N/A   Overcast
5:53 PM 80.1 °F 83.2 °F 70.0 °F 71% 29.93 in 10.0 mi NE 6.9 mph - N/A   Overcast
6:53 PM 79.0 °F - 70.0 °F 74% 29.91 in 9.0 mi NE 5.8 mph - N/A   Overcast
7:53 PM 78.1 °F - 70.0 °F 76% 29.91 in 10.0 mi NE 5.8 mph - N/A   Clear
8:53 PM 75.0 °F - 70.0 °F 84% 29.94 in 10.0 mi NNE 9.2 mph - N/A   Clear
9:53 PM 73.9 °F - 70.0 °F 87% 29.96 in 10.0 mi North 5.8 mph - N/A   Clear
10:53 PM 73.0 °F - 70.0 °F 90% 29.96 in 10.0 mi NNE 5.8 mph - N/A   Clear
11:53 PM 72.0 °F - 69.1 °F 91% 29.95 in 9.0 mi ENE 5.8 mph - N/A   Clear